GW5150 Weather Reports


time (UTC)temp
F
wind
direction
speed
knots
gust
knots
rain 1hr
in
rain 24hr
in
rain mn
in
humidity
%
barometer
mb
20260504192503 81 202 7.0 12.2 0.00 0.00 0.00 57 1015.4
20260504192007 81 198 5.2 13.9 0.00 0.00 0.00 57 1015.4
20260504191527 82 186 7.8 13.9 0.00 0.00 0.00 57 1015.4
20260504191008 82 199 5.2 12.2 0.00 0.00 0.00 58 1015.5
20260504190506 82 236 5.2 12.2 0.00 0.00 0.00 58 1015.5
20260504190023 82 142 5.2 11.3 0.00 0.00 0.00 57 1015.4
20260504185507 82 194 7.0 13.9 0.00 0.00 0.00 57 1015.4
20260504185008 81 177 5.2 14.8 0.00 0.00 0.00 57 1015.6
20260504184503 81 219 7.8 14.8 0.00 0.00 0.00 56 1015.7
20260504184003 81 176 7.8 13.0 0.00 0.00 0.00 56 1015.8
20260504183504 82 219 6.1 12.2 0.00 0.00 0.00 56 1015.7
20260504183010 82 211 5.2 12.2 0.00 0.00 0.00 56 1015.7
20260504182503 81 194 5.2 11.3 0.00 0.00 0.00 57 1015.9
20260504182007 81 188 7.0 13.0 0.00 0.00 0.00 56 1015.9
20260504181517 81 220 7.0 13.0 0.00 0.00 0.00 56 1015.8
20260504181007 82 180 7.0 12.2 0.00 0.00 0.00 55 1015.9
20260504180507 81 220 7.0 13.9 0.00 0.00 0.00 55 1016.0
20260504180020 81 199 7.0 13.9 0.00 0.00 0.00 57 1016.1
20260504175507 81 210 5.2 13.9 0.00 0.00 0.00 58 1016.3
20260504175005 81 196 6.1 13.9 0.00 0.00 0.00 58 1016.3
20260504174523 81 187 7.8 13.0 0.00 0.00 0.00 57 1016.3
20260504174008 81 190 7.0 15.6 0.00 0.00 0.00 57 1016.4
20260504173509 81 163 7.8 15.6 0.00 0.00 0.00 56 1016.4
20260504173024 81 183 5.2 12.2 0.00 0.00 0.00 57 1016.6
20260504172503 81 205 6.1 14.8 0.00 0.00 0.00 57 1016.6
20260504172003 81 202 6.1 14.8 0.00 0.00 0.00 58 1016.6
20260504171510 81 198 6.1 13.9 0.00 0.00 0.00 56 1016.7
20260504171006 81 202 7.8 13.9 0.00 0.00 0.00 56 1016.9
20260504170504 81 178 7.0 13.0 0.00 0.00 0.00 56 1017.0
20260504151010 78 223 6.1 15.6 0.00 0.00 0.00 58 1017.4
20260504150511 78 202 5.2 15.6 0.00 0.00 0.00 58 1017.3
20260504141006 77 182 4.3 11.3 0.00 0.00 0.00 60 1017.1
20260504140503 77 188 7.8 11.3 0.00 0.00 0.00 60 1017.2
20260504130506 74 182 6.1 11.3 0.00 0.00 0.00 65 1017.0
20260504110506 70 207 3.5 8.7 0.00 0.00 0.00 55 1016.5
20260504100505 71 130 3.5 8.7 0.00 0.00 0.00 54 1016.9
20260504082007 71 158 2.6 8.7 0.00 0.00 0.00 54 1017.5
20260504081508 71 157 4.3 8.7 0.00 0.00 0.00 55 1017.3
20260504081006 71 138 4.3 10.4 0.00 0.00 0.00 54 1017.3
20260504080505 71 170 2.6 10.4 0.00 0.00 0.00 54 1017.5
20260504050503 71 157 4.3 9.6 0.00 0.00 0.00 53 1019.3
20260504050007 71 167 2.6 7.8 0.00 0.00 0.00 52 1019.5
20260504045503 71 208 3.5 7.8 0.00 0.00 0.00 52 1019.5
20260504045006 71 171 2.6 7.8 0.00 0.00 0.00 53 1019.6
20260504044510 71 140 3.5 7.8 0.00 0.00 0.00 52 1019.7
20260504044007 71 134 2.6 7.0 0.00 0.00 0.00 53 1019.6
20260504043504 71 144 2.6 7.8 0.00 0.00 0.00 52 1019.5
20260504043013 71 138 2.6 7.8 0.00 0.00 0.00 52 1019.6
20260504042508 71 172 3.5 7.8 0.00 0.00 0.00 52 1019.4
20260504042007 71 132 2.6 8.7 0.00 0.00 0.00 51 1019.3
20260504041518 71 171 3.5 8.7 0.00 0.00 0.00 52 1019.5
20260504041007 71 167 3.5 7.8 0.00 0.00 0.00 52 1019.5
20260504040502 71 148 1.7 7.8 0.00 0.00 0.00 52 1019.5
20260504040011 71 178 3.5 7.8 0.00 0.00 0.00 52 1019.6
20260504035506 71 136 3.5 7.0 0.00 0.00 0.00 51 1019.6
20260504035008 71 170 2.6 7.0 0.00 0.00 0.00 52 1019.5
20260504034508 71 144 2.6 7.0 0.00 0.00 0.00 51 1019.5
20260504034004 71 111 2.6 7.0 0.00 0.00 0.00 51 1019.5
20260504033504 71 158 2.6 7.0 0.00 0.00 0.00 50 1019.5
20260504033010 71 145 1.7 7.0 0.00 0.00 0.00 51 1019.5
20260504032504 71 164 2.6 7.0 0.00 0.00 0.00 51 1019.4
20260504032003 71 134 1.7 6.1 0.00 0.00 0.00 50 1019.4
20260504031516 71 136 1.7 6.1 0.00 0.00 0.00 51 1019.4
20260504031006 71 151 2.6 6.1 0.00 0.00 0.00 49 1019.4
20260504030506 71 160 1.7 6.1 0.00 0.00 0.00 51 1019.5
20260504030020 71 150 1.7 6.1 0.00 0.00 0.00 51 1019.5
20260504025508 71 136 2.6 6.1 0.00 0.00 0.00 51 1019.5
20260504025006 71 128 1.7 7.0 0.00 0.00 0.00 50 1019.5
20260504024504 71 136 3.5 7.0 0.00 0.00 0.00 50 1019.5
20260504024004 71 108 2.6 6.1 0.00 0.00 0.00 49 1019.5
20260504023502 71 168 1.7 6.1 0.00 0.00 0.00 50 1019.4
20260504023010 71 143 1.7 6.1 0.00 0.00 0.00 49 1019.4
20260504022504 71 159 3.5 6.1 0.00 0.00 0.00 49 1019.3
20260504022004 71 146 1.7 5.2 0.00 0.00 0.00 50 1019.3
20260504021511 71 117 0.9 7.8 0.00 0.00 0.00 50 1019.4
20260504021003 71 188 1.7 8.7 0.00 0.00 0.00 49 1019.4
20260504020503 71 181 4.3 8.7 0.00 0.00 0.00 49 1019.4
20260504020016 71 157 3.5 7.0 0.00 0.00 0.00 49 1019.4
20260504015506 72 182 3.5 7.0 0.00 0.00 0.00 49 1019.4
20260504015009 72 182 3.5 6.1 0.00 0.00 0.00 50 1019.6
20260504014526 72 150 2.6 6.1 0.00 0.00 0.00 49 1019.6
20260504014005 72 171 2.6 5.2 0.00 0.00 0.00 49 1019.5
20260504013502 72 171 2.6 7.0 0.00 0.00 0.00 48 1019.3
20260504013005 72 167 2.6 7.8 0.00 0.00 0.00 48 1019.4
20260504012505 72 209 2.6 7.8 0.00 0.00 0.00 49 1019.4
20260504012003 72 148 3.5 6.1 0.00 0.00 0.00 48 1019.4
20260504011510 72 192 2.6 6.1 0.00 0.00 0.00 47 1019.5
20260504011004 72 177 2.6 6.1 0.00 0.00 0.00 47 1019.3
20260504010504 72 163 1.7 7.0 0.00 0.00 0.00 48 1019.4
20260504010015 72 211 2.6 7.0 0.00 0.00 0.00 47 1019.3
20260504005505 72 139 1.7 6.1 0.00 0.00 0.00 47 1019.3
20260504005006 73 178 2.6 6.1 0.00 0.00 0.00 49 1019.4
20260504004526 73 174 0.9 6.1 0.00 0.00 0.00 48 1019.4
20260504004006 73 169 2.6 7.0 0.00 0.00 0.00 46 1019.3
20260504003508 73 131 1.7 7.0 0.00 0.00 0.00 45 1019.3
20260504003023 74 115 0.9 7.0 0.00 0.00 0.00 46 1019.3
20260504002507 74 188 1.7 7.0 0.00 0.00 0.00 47 1019.3
20260504002010 74 172 2.6 7.8 0.00 0.00 0.00 45 1019.4
20260504001507 75 178 2.6 7.8 0.00 0.00 0.00 44 1019.4
20260504001003 75 202 3.5 7.8 0.00 0.00 0.00 43 1019.4
20260504000502 75 178 3.5 7.8 0.00 0.00 0.00 44 1019.3
20260504000012 76 178 2.6 7.0 0.00 0.00 0.00 44 1019.5
20260503235504 76 130 1.7 7.0 0.00 0.00 0.00 43 1019.6
20260503235006 76 171 0.9 6.1 0.00 0.00 0.00 42 1019.7
20260503234518 77 164 1.7 6.1 0.00 0.00 0.00 42 1019.7
20260503234006 77 169 2.6 7.8 0.00 0.00 0.00 41 1019.6
20260503233508 77 192 3.5 7.8 0.00 0.00 0.00 42 1019.7
20260503233021 77 159 0.9 7.0 0.00 0.00 0.00 41 1019.6
20260503232508 77 159 1.7 7.8 0.00 0.00 0.00 41 1019.7
20260503232007 77 160 3.5 7.8 0.00 0.00 0.00 41 1019.8
20260503231524 77 184 3.5 7.8 0.00 0.00 0.00 42 1019.9
20260503231007 77 184 2.6 8.7 0.00 0.00 0.00 43 1020.0
20260503230508 77 128 3.5 8.7 0.00 0.00 0.00 42 1020.0
20260503230009 77 148 3.5 7.8 0.00 0.00 0.00 41 1019.9
20260503225503 78 203 3.5 7.8 0.00 0.00 0.00 41 1020.1
20260503225007 78 136 2.6 8.7 0.00 0.00 0.00 41 1020.2
20260503224514 78 181 3.5 8.7 0.00 0.00 0.00 41 1020.3
20260503224004 78 196 3.5 9.6 0.00 0.00 0.00 41 1020.3
20260503223509 78 188 4.3 9.6 0.00 0.00 0.00 40 1020.4
20260503223019 78 178 4.3 7.8 0.00 0.00 0.00 39 1020.2
20260503222507 78 202 4.3 8.7 0.00 0.00 0.00 40 1020.3
20260503222009 78 138 2.6 8.7 0.00 0.00 0.00 40 1020.2
20260503221523 78 170 4.3 9.6 0.00 0.00 0.00 40 1020.2
20260503221009 78 115 2.6 9.6 0.00 0.00 0.00 41 1020.3
20260503220507 79 158 4.3 9.6 0.00 0.00 0.00 40 1020.4
20260503220026 78 169 3.5 8.7 0.00 0.00 0.00 41 1020.5
20260503215508 78 139 2.6 8.7 0.00 0.00 0.00 40 1020.5
20260503215010 78 184 5.2 8.7 0.00 0.00 0.00 41 1020.6
20260503214511 78 133 3.5 8.7 0.00 0.00 0.00 42 1020.5
20260503214003 78 188 5.2 8.7 0.00 0.00 0.00 42 1020.6
20260503213511 78 121 5.2 10.4 0.00 0.00 0.00 42 1020.6
20260503213019 78 175 5.2 10.4 0.00 0.00 0.00 41 1020.6
20260503212508 79 159 3.5 9.6 0.00 0.00 0.00 39 1020.8
20260503212008 79 157 2.6 8.7 0.00 0.00 0.00 39 1020.9
20260503211521 79 125 3.5 8.7 0.00 0.00 0.00 40 1020.9
20260503211011 79 199 4.3 8.7 0.00 0.00 0.00 39 1021.0
20260503210507 79 184 4.3 9.6 0.00 0.00 0.00 40 1021.0
20260503210025 79 152 4.3 9.6 0.00 0.00 0.00 39 1021.1
20260503205510 80 171 3.5 7.8 0.00 0.00 0.00 39 1021.1
20260503205007 79 185 3.5 8.7 0.00 0.00 0.00 39 1021.2
20260503204505 78 207 4.3 8.7 0.00 0.00 0.00 39 1021.2
20260503204004 78 165 4.3 8.7 0.00 0.00 0.00 39 1021.3
20260503203503 78 133 4.3 8.7 0.00 0.00 0.00 41 1021.5
20260503203005 78 122 4.3 8.7 0.00 0.00 0.00 40 1021.7
20260503202503 78 131 4.3 9.6 0.00 0.00 0.00 40 1021.7
20260503202003 78 115 6.1 9.6 0.00 0.00 0.00 39 1021.7
20260503201503 78 142 3.5 9.6 0.00 0.00 0.00 41 1021.9
20260503201003 78 171 2.6 10.4 0.00 0.00 0.00 41 1021.9
20260503200503 78 150 4.3 10.4 0.00 0.00 0.00 39 1022.0
20260503200008 77 165 4.3 9.6 0.00 0.00 0.00 38 1022.0
20260503195502 78 109 5.2 10.4 0.00 0.00 0.00 39 1022.0
20260503195002 78 152 7.0 10.4 0.00 0.00 0.00 36 1022.0
20260503194505 78 121 4.3 8.7 0.00 0.00 0.00 38 1022.1
20260503194003 78 124 5.2 8.7 0.00 0.00 0.00 37 1022.3
20260503193503 78 171 4.3 11.3 0.00 0.00 0.00 39 1022.3
20260503193006 77 146 5.2 12.2 0.00 0.00 0.00 39 1022.4